Content
SEND FEEDBACK

Daily
Averages
Monthly
Summary
United States of America

PLAQUEMINE, LOUISIANA


Home > North America > United States > Louisiana
Elevation: 20 feet     Latitude: 30 19N     Longitude: 091 14W

WEATHER
 
SELECT A DAY
Number of Records: 200,511;   Date Range: 1/1/95 - 7/29/14
 
SHARE

PRINT THIS DATA

[ ← Previous Day ]
WEATHER ALMANAC - FEBRUARY 13, 2013
[ Next Day → ]
[ °C ]   °F
Weather ElementAverageHighLow
Temperature50.4 °F57.9 °F (3:53 pm)41 °F (11:53 pm)
Dewpoint43 °F50 °F (12:53 am)37 °F (7:53 pm)
Humidity76.9 %93 % (2:53 am)53 % (3:53 pm)
Barometer30.00 in30.09 in (9:53 pm)29.88 in (12:53 am)
Wind Speed6.3 mph13.8 mph (8:25 am)
Wind Gust19.6 mph (7:53 am)
Weather ElementAverage
Visibility10 mi
Wind DirectionSSW (215.5 °)

Weather ElementTotal
Precipitation0.01 in
Heating Degree Days15.6 (Base 65)
Averaged from 29 records on February 13, 2013
WEATHER CONDITIONS BREAKOUT
WIND DIRECTION BREAKOUT
WEATHER BY HOUR - FEBRUARY 13, 2013
[ °C ]   °F
Local TimeTemperatureDewpointHumidityBarometerVisibilityWind DirectionWind SpeedGust SpeedPrecipitationEventsConditions
12:53 AM53.1 °F50.0 °F89 %29.88 in10.0 miWNW (300°)4.6 mphMostly Cloudy
1:53 AM53.1 °F48.9 °F86 %29.93 in10.0 miWest (280°)9.2 mphScattered Clouds
2:03 AM53.6 °F48.2 °F82 %29.94 in10.0 miWest (280°)8.1 mphMostly Cloudy
2:11 AM53.6 °F50.0 °F88 %29.93 in10.0 miWNW (290°)4.6 mphScattered Clouds
2:53 AM52.0 °F50.0 °F93 %29.94 in10.0 miWest (280°)5.8 mphClear
3:53 AM52.0 °F48.9 °F89 %29.92 in10.0 miWNW (290°)6.9 mphScattered Clouds
4:53 AM52.0 °F48.9 °F89 %29.93 in10.0 miNW (310°)5.8 mphClear
5:53 AM51.8 °F48.2 °F88 %29.94 in10.0 miNW (310°)8.1 mph16.1 mphPartly Cloudy
6:53 AM53.1 °F48.0 °F83 %29.98 in10.0 miWest (280°)11.5 mph0.00 inRainLight Rain
7:53 AM51.1 °F46.0 °F83 %30.01 in10.0 miNW (310°)11.5 mph19.6 mph0.01 inRainLight Rain
8:25 AM50.0 °F44.6 °F82 %30.03 in10.0 miWNW (290°)13.8 mph19.6 mph0.00 inOvercast
8:53 AM48.9 °F42.1 °F77 %30.03 in10.0 miNW (310°)11.5 mph0.00 inOvercast
9:40 AM48.2 °F42.8 °F82 %30.03 in10.0 miWNW (300°)9.2 mph0.00 inOvercast
9:53 AM48.0 °F42.1 °F80 %30.02 in10.0 miVariable3.5 mph0.00 inRainLight Rain
10:53 AM48.9 °F41.0 °F74 %30.02 in10.0 miVariable4.6 mph0.00 inMostly Cloudy
11:53 AM50.0 °F41.0 °F71 %30.03 in10.0 miNW (320°)5.8 mphOvercast
12:11 PM51.8 °F39.2 °F62 %30.03 in10.0 miNNW (340°)6.9 mphOvercast
12:53 PM51.1 °F39.9 °F66 %30.01 in10.0 miNW (320°)9.2 mphMostly Cloudy
1:53 PM54.0 °F39.9 °F59 %30.00 in10.0 miVariable3.5 mphMostly Cloudy
2:53 PM57.0 °F41.0 °F55 %29.99 in10.0 miNNW (330°)9.2 mphMostly Cloudy
3:53 PM57.9 °F41.0 °F53 %29.99 in10.0 miNNE (20°)5.8 mphMostly Cloudy
4:53 PM53.1 °F39.9 °F61 %30.01 in10.0 miVariable4.6 mphScattered Clouds
5:53 PM51.1 °F39.0 °F63 %30.02 in10.0 miNorth (360°)6.9 mphClear
6:53 PM48.0 °F37.9 °F68 %30.05 in10.0 miNorth (360°)4.6 mphClear
7:53 PM46.9 °F37.0 °F68 %30.06 in10.0 miCalmClear
8:53 PM44.1 °F37.9 °F79 %30.08 in10.0 miCalmClear
9:53 PM42.1 °F39.0 °F89 %30.09 in10.0 miNorth (360°)3.5 mphClear
10:53 PM43.0 °F37.9 °F82 %30.09 in10.0 miNorth (10°)3.5 mphClear
11:53 PM41.0 °F37.9 °F89 %30.08 in10.0 miCalmClear
Hourly data recorded from KBTR, located miles away from Plaquemine, Louisiana







STORIES FROM OUR PARTNERS